Location: Abundant Grace Fellowship
(35.0349°N, 90.0924°W)
Time: 21:07:03
(UTC+00:00)

RESURS DK-1 - Pass Details

Date: 18 January 2026
Orbit: 525 x 531 km, 69.9° (Epoch: 10 February)

Event Time Altitude Azimuth Distance (km) Brightness Sun altitude
Rises 00:21:56 0° 229° (SW) 2,660 7.1 -13.9°
Reaches altitude 10° 00:24:23 10° 242° (WSW) 1,775 6.2 -14.3°
Maximum altitude 00:27:41 25° 299° (WNW) 1,102 4.4 -15.0°
Drops below altitude 10° 00:31:01 10° 356° (N) 1,786 4.8 -15.7°
Enters shadow 00:32:55 - 7° (N) 2,462 5.4 -16.0°
